Location: Recife
(8.0585°S, 34.8848°W)
Time: 07:39:31
(UTC-03:00)

Courier 1B - Pass Details

Date: 17 April 2026
Orbit: 962 x 1209 km, 28.3° (Epoch: 13 May)

Event Time Altitude Azimuth Distance (km) Brightness Sun altitude
Rises 05:25:20 0° 285° (WNW) 3,963 10.1 0.0°
Reaches altitude 10° 05:28:10 10° 280° (W) 3,037 9.5 0.7°
Maximum altitude 05:35:29 51° 206° (SSW) 1,454 8.3 2.5°
Drops below altitude 10° 05:43:06 10° 131° (SE) 3,146 10.8 4.3°
Sets 05:46:05 0° 126° (SE) 4,114 11.5 5.1°
